Time,TemperatureF,DewpointF,PressureIn,WindDirection,WindDirectionDegrees,WindSpeedMPH,WindSpeedGustMPH,Humidity,HourlyPrecipIn,Conditions,Clouds,dailyrainin,SoftwareType,DateUTC
2013-02-02 00:08:00,23.9,17.0,30.13,SW,234,12.0,17.0,75,0.00,,,0.00,weatherlink.com 1.10,2013-02-02 06:08:00,
2013-02-02 00:23:00,23.6,17.0,30.12,SW,232,6.0,15.0,76,0.00,,,0.00,weatherlink.com 1.10,2013-02-02 06:23:00,
2013-02-02 00:38:00,23.7,17.0,30.12,SW,229,11.0,18.0,76,0.00,,,0.00,weatherlink.com 1.10,2013-02-02 06:38:00,
2013-02-02 00:53:00,23.4,17.0,30.12,WSW,238,2.0,16.0,77,0.00,,,0.00,weatherlink.com 1.10,2013-02-02 06:53:00,
2013-02-02 01:08:00,23.5,18.0,30.11,WSW,244,7.0,18.0,78,0.00,,,0.00,weatherlink.com 1.10,2013-02-02 07:08:00,
2013-02-02 01:23:00,23.8,18.0,30.11,WSW,244,11.0,16.0,77,0.00,,,0.00,weatherlink.com 1.10,2013-02-02 07:23:00,
2013-02-02 01:38:00,24.1,18.0,30.10,WSW,249,12.0,17.0,78,0.00,,,0.00,weatherlink.com 1.10,2013-02-02 07:38:00,
2013-02-02 01:53:00,24.5,19.0,30.10,WSW,252,12.0,17.0,78,0.00,,,0.00,weatherlink.com 1.10,2013-02-02 07:53:00,
2013-02-02 02:08:00,24.9,19.0,30.11,WSW,252,2.0,18.0,79,0.00,,,0.00,weatherlink.com 1.10,2013-02-02 08:08:00,
2013-02-02 02:23:00,25.4,20.0,30.11,WSW,237,5.0,19.0,80,0.00,,,0.00,weatherlink.com 1.10,2013-02-02 08:23:00,
2013-02-02 02:38:00,25.6,20.0,30.10,West,259,7.0,16.0,80,0.00,,,0.00,weatherlink.com 1.10,2013-02-02 08:38:00,
2013-02-02 02:53:00,25.9,21.0,30.11,West,275,9.0,15.0,80,0.00,,,0.00,weatherlink.com 1.10,2013-02-02 08:53:00,
2013-02-02 03:08:00,26.1,21.0,30.11,WNW,285,9.0,16.0,80,0.00,,,0.00,weatherlink.com 1.10,2013-02-02 09:08:00,
2013-02-02 03:23:00,26.6,21.0,30.11,NW,315,9.0,18.0,80,0.00,,,0.00,weatherlink.com 1.10,2013-02-02 09:23:00,
2013-02-02 03:38:00,26.8,21.0,30.12,WNW,297,4.0,22.0,80,0.00,,,0.00,weatherlink.com 1.10,2013-02-02 09:38:00,
2013-02-02 03:53:00,26.0,20.0,30.13,NW,318,6.0,19.0,78,0.00,,,0.00,weatherlink.com 1.10,2013-02-02 09:53:00,
2013-02-02 04:08:00,23.7,18.0,30.14,NW,306,20.0,22.0,78,0.00,,,0.00,weatherlink.com 1.10,2013-02-02 10:08:00,
2013-02-02 04:23:00,22.0,16.0,30.15,NW,310,10.0,21.0,78,0.00,,,0.00,weatherlink.com 1.10,2013-02-02 10:23:00,
2013-02-02 04:38:00,20.8,15.0,30.15,NW,307,3.0,18.0,79,0.00,,,0.00,weatherlink.com 1.10,2013-02-02 10:38:00,
2013-02-02 04:53:00,20.1,15.0,30.16,NW,317,3.0,19.0,81,0.00,,,0.00,weatherlink.com 1.10,2013-02-02 10:53:00,
2013-02-02 05:08:00,19.8,15.0,30.17,NW,310,4.0,16.0,81,0.00,,,0.00,weatherlink.com 1.10,2013-02-02 11:08:00,
2013-02-02 05:23:00,19.4,15.0,30.17,NW,311,12.0,15.0,82,0.00,,,0.00,weatherlink.com 1.10,2013-02-02 11:23:00,
2013-02-02 05:39:00,19.1,15.0,30.17,NW,313,12.0,14.0,83,0.00,,,0.00,weatherlink.com 1.10,2013-02-02 11:39:00,
2013-02-02 05:53:00,18.8,15.0,30.18,NW,306,6.0,14.0,83,0.00,,,0.00,weatherlink.com 1.10,2013-02-02 11:53:00,
2013-02-02 06:09:00,18.6,15.0,30.18,NW,315,6.0,17.0,84,0.00,,,0.00,weatherlink.com 1.10,2013-02-02 12:09:00,
2013-02-02 06:24:00,18.5,15.0,30.19,NW,325,12.0,20.0,84,0.00,,,0.00,weatherlink.com 1.10,2013-02-02 12:24:00,
2013-02-02 06:39:00,18.4,14.0,30.19,NW,317,11.0,22.0,84,0.00,,,0.00,weatherlink.com 1.10,2013-02-02 12:39:00,
2013-02-02 06:54:00,18.0,14.0,30.20,NW,305,7.0,20.0,83,0.00,,,0.00,weatherlink.com 1.10,2013-02-02 12:54:00,
2013-02-02 07:09:00,17.7,13.0,30.20,WNW,303,4.0,16.0,83,0.00,,,0.00,weatherlink.com 1.10,2013-02-02 13:09:00,
2013-02-02 07:24:00,17.5,13.0,30.21,NW,314,3.0,16.0,83,0.00,,,0.00,weatherlink.com 1.10,2013-02-02 13:24:00,
2013-02-02 07:39:00,17.2,13.0,30.21,NW,306,12.0,19.0,82,0.00,,,0.00,weatherlink.com 1.10,2013-02-02 13:39:00,
2013-02-02 07:54:00,16.5,12.0,30.22,NW,323,7.0,18.0,81,0.00,,,0.00,weatherlink.com 1.10,2013-02-02 13:54:00,
2013-02-02 08:09:00,16.1,11.0,30.23,NW,313,4.0,17.0,81,0.00,,,0.00,weatherlink.com 1.10,2013-02-02 14:09:00,
2013-02-02 08:24:00,15.7,11.0,30.24,NW,312,9.0,22.0,81,0.00,,,0.00,weatherlink.com 1.10,2013-02-02 14:24:00,
2013-02-02 08:39:00,15.5,10.0,30.24,NW,317,11.0,20.0,80,0.00,,,0.00,weatherlink.com 1.10,2013-02-02 14:39:00,
2013-02-02 08:54:00,15.6,10.0,30.24,NW,323,8.0,19.0,79,0.00,,,0.00,weatherlink.com 1.10,2013-02-02 14:54:00,
2013-02-02 09:09:00,15.9,11.0,30.25,NNW,332,16.0,20.0,79,0.00,,,0.00,weatherlink.com 1.10,2013-02-02 15:09:00,
2013-02-02 09:24:00,16.3,10.0,30.25,WNW,300,9.0,17.0,77,0.00,,,0.00,weatherlink.com 1.10,2013-02-02 15:24:00,
2013-02-02 09:39:00,16.8,10.0,30.25,NW,325,9.0,15.0,75,0.00,,,0.00,weatherlink.com 1.10,2013-02-02 15:39:00,
2013-02-02 09:54:00,17.3,10.0,30.25,NW,317,11.0,16.0,74,0.00,,,0.00,weatherlink.com 1.10,2013-02-02 15:54:00,
2013-02-02 10:09:00,17.4,10.0,30.25,NW,315,8.0,11.0,72,0.00,,,0.00,weatherlink.com 1.10,2013-02-02 16:09:00,
2013-02-02 10:24:00,17.6,10.0,30.26,NW,317,10.0,14.0,71,0.00,,,0.00,weatherlink.com 1.10,2013-02-02 16:24:00,
2013-02-02 10:39:00,18.0,10.0,30.26,NNW,327,4.0,14.0,70,0.00,,,0.00,weatherlink.com 1.10,2013-02-02 16:39:00,
2013-02-02 10:54:00,18.4,9.0,30.26,NW,309,14.0,18.0,68,0.00,,,0.00,weatherlink.com 1.10,2013-02-02 16:54:00,
2013-02-02 11:09:00,18.7,10.0,30.26,NW,310,3.0,16.0,68,0.00,,,0.00,weatherlink.com 1.10,2013-02-02 17:09:00,
2013-02-02 11:24:00,18.8,10.0,30.25,NW,304,8.0,13.0,68,0.00,,,0.00,weatherlink.com 1.10,2013-02-02 17:24:00,
2013-02-02 11:39:00,18.4,9.0,30.25,NW,319,7.0,17.0,67,0.00,,,0.00,weatherlink.com 1.10,2013-02-02 17:39:00,
2013-02-02 11:54:00,18.5,10.0,30.23,NW,324,9.0,12.0,68,0.00,,,0.00,weatherlink.com 1.10,2013-02-02 17:54:00,
2013-02-02 12:09:00,18.8,10.0,30.23,NW,318,6.0,11.0,68,0.00,,,0.00,weatherlink.com 1.10,2013-02-02 18:09:00,
2013-02-02 12:24:00,19.7,10.0,30.23,NW,304,11.0,14.0,67,0.00,,,0.00,weatherlink.com 1.10,2013-02-02 18:24:00,
2013-02-02 12:39:00,19.6,10.0,30.23,NW,310,11.0,16.0,65,0.00,,,0.00,weatherlink.com 1.10,2013-02-02 18:39:00,
2013-02-02 12:54:00,19.8,10.0,30.22,WNW,299,8.0,17.0,67,0.00,,,0.00,weatherlink.com 1.10,2013-02-02 18:54:00,
2013-02-02 13:09:00,20.7,11.0,30.22,WNW,303,11.0,14.0,65,0.00,,,0.00,weatherlink.com 1.10,2013-02-02 19:09:00,
2013-02-02 13:24:00,21.2,11.0,30.22,NW,305,6.0,17.0,64,0.00,,,0.00,weatherlink.com 1.10,2013-02-02 19:24:00,
2013-02-02 13:39:00,21.5,12.0,30.21,WNW,296,5.0,10.0,66,0.00,,,0.00,weatherlink.com 1.10,2013-02-02 19:39:00,
2013-02-02 13:54:00,21.7,12.0,30.21,NW,304,0.0,9.0,66,0.00,,,0.00,weatherlink.com 1.10,2013-02-02 19:54:00,
2013-02-02 14:09:00,21.9,12.0,30.20,NW,306,5.0,9.0,66,0.00,,,0.00,weatherlink.com 1.10,2013-02-02 20:09:00,
2013-02-02 14:24:00,21.9,12.0,30.21,NW,304,5.0,13.0,67,0.00,,,0.00,weatherlink.com 1.10,2013-02-02 20:24:00,
2013-02-02 14:39:00,22.1,13.0,30.20,NW,309,7.0,9.0,67,0.00,,,0.00,weatherlink.com 1.10,2013-02-02 20:39:00,
2013-02-02 14:54:00,22.0,13.0,30.20,WNW,290,5.0,9.0,68,0.00,,,0.00,weatherlink.com 1.10,2013-02-02 20:54:00,
2013-02-02 15:09:00,21.8,14.0,30.20,WNW,290,2.0,5.0,72,0.00,,,0.00,weatherlink.com 1.10,2013-02-02 21:09:00,
2013-02-02 15:24:00,21.6,15.0,30.20,WNW,284,4.0,8.0,75,0.00,,,0.00,weatherlink.com 1.10,2013-02-02 21:24:00,
2013-02-02 15:39:00,21.8,15.0,30.19,WNW,283,3.0,6.0,76,0.00,,,0.00,weatherlink.com 1.10,2013-02-02 21:39:00,
2013-02-02 16:09:00,21.8,15.0,30.18,WNW,283,0.0,3.0,76,0.00,,,0.00,weatherlink.com 1.10,2013-02-02 22:09:00,
2013-02-02 16:24:00,21.8,15.0,30.17,WNW,283,0.0,0.0,76,0.00,,,0.00,weatherlink.com 1.10,2013-02-02 22:24:00,
2013-02-02 16:39:00,21.5,15.0,30.17,WNW,283,0.0,0.0,76,0.00,,,0.00,weatherlink.com 1.10,2013-02-02 22:39:00,
2013-02-02 16:54:00,21.4,15.0,30.16,WNW,283,0.0,0.0,77,0.00,,,0.00,weatherlink.com 1.10,2013-02-02 22:54:00,
2013-02-02 17:10:00,21.2,15.0,30.15,WNW,283,0.0,0.0,77,0.00,,,0.00,weatherlink.com 1.10,2013-02-02 23:10:00,
2013-02-02 17:25:00,21.2,15.0,30.13,WNW,283,0.0,0.0,78,0.00,,,0.00,weatherlink.com 1.10,2013-02-02 23:25:00,
2013-02-02 17:40:00,21.2,15.0,30.13,WNW,283,0.0,0.0,78,0.00,,,0.00,weatherlink.com 1.10,2013-02-02 23:40:00,
2013-02-02 17:55:00,21.1,16.0,30.14,WNW,283,0.0,0.0,80,0.00,,,0.00,weatherlink.com 1.10,2013-02-02 23:55:00,
2013-02-02 18:10:00,20.8,16.0,30.13,WNW,283,0.0,0.0,82,0.00,,,0.00,weatherlink.com 1.10,2013-02-03 00:10:00,
2013-02-02 18:25:00,20.5,16.0,30.12,WNW,283,0.0,3.0,84,0.00,,,0.00,weatherlink.com 1.10,2013-02-03 00:25:00,
2013-02-02 18:40:00,20.3,17.0,30.12,WNW,282,0.0,0.0,86,0.00,,,0.00,weatherlink.com 1.10,2013-02-03 00:40:00,
2013-02-02 18:55:00,20.4,17.0,30.12,WNW,282,0.0,4.0,87,0.00,,,0.00,weatherlink.com 1.10,2013-02-03 00:55:00,
2013-02-02 19:10:00,20.7,18.0,30.11,West,265,4.0,6.0,89,0.00,,,0.00,weatherlink.com 1.10,2013-02-03 01:10:00,
2013-02-02 19:25:00,20.8,18.0,30.11,WSW,251,0.0,4.0,89,0.00,,,0.00,weatherlink.com 1.10,2013-02-03 01:25:00,
2013-02-02 19:40:00,20.8,18.0,30.10,WSW,239,0.0,3.0,89,0.00,,,0.00,weatherlink.com 1.10,2013-02-03 01:40:00,
2013-02-02 19:55:00,20.9,19.0,30.09,SW,236,0.0,4.0,90,0.00,,,0.00,weatherlink.com 1.10,2013-02-03 01:55:00,
2013-02-02 20:10:00,21.1,19.0,30.10,SW,236,0.0,4.0,90,0.00,,,0.00,weatherlink.com 1.10,2013-02-03 02:10:00,
2013-02-02 20:25:00,21.2,19.0,30.09,SW,236,0.0,4.0,90,0.00,,,0.00,weatherlink.com 1.10,2013-02-03 02:25:00,
2013-02-02 20:40:00,21.2,19.0,30.08,SW,236,2.0,5.0,91,0.00,,,0.00,weatherlink.com 1.10,2013-02-03 02:40:00,
2013-02-02 20:55:00,21.2,19.0,30.07,SW,233,1.0,4.0,91,0.00,,,0.00,weatherlink.com 1.10,2013-02-03 02:55:00,
2013-02-02 21:10:00,21.3,19.0,30.06,SW,231,2.0,4.0,91,0.00,,,0.00,weatherlink.com 1.10,2013-02-03 03:10:00,
2013-02-02 21:25:00,22.0,20.0,30.05,SW,227,4.0,7.0,91,0.00,,,0.00,weatherlink.com 1.10,2013-02-03 03:25:00,
2013-02-02 21:40:00,23.2,21.0,30.05,SW,218,6.0,8.0,92,0.00,,,0.00,weatherlink.com 1.10,2013-02-03 03:40:00,
2013-02-02 21:55:00,24.3,22.0,30.06,SW,232,3.0,11.0,92,0.00,,,0.00,weatherlink.com 1.10,2013-02-03 03:55:00,
2013-02-02 22:10:00,25.1,23.0,30.05,WSW,241,4.0,10.0,92,0.00,,,0.00,weatherlink.com 1.10,2013-02-03 04:10:00,
2013-02-02 22:25:00,25.5,24.0,30.05,WSW,252,8.0,12.0,92,0.00,,,0.00,weatherlink.com 1.10,2013-02-03 04:25:00,
2013-02-02 22:40:00,26.9,25.0,30.04,WSW,252,7.0,13.0,92,0.00,,,0.00,weatherlink.com 1.10,2013-02-03 04:40:00,
2013-02-02 22:55:00,27.3,25.0,30.04,WSW,248,10.0,16.0,92,0.00,,,0.00,weatherlink.com 1.10,2013-02-03 04:55:00,
2013-02-02 23:10:00,28.1,26.0,30.04,West,263,11.0,13.0,92,0.00,,,0.00,weatherlink.com 1.10,2013-02-03 05:10:00,
2013-02-02 23:25:00,28.7,26.0,30.03,West,270,15.0,15.0,91,0.00,,,0.00,weatherlink.com 1.10,2013-02-03 05:25:00,
2013-02-02 23:40:00,29.8,28.0,30.04,West,281,5.0,18.0,91,0.00,,,0.00,weatherlink.com 1.10,2013-02-03 05:40:00,
2013-02-02 23:55:00,31.6,28.0,30.04,West,279,17.0,28.0,87,0.00,,,0.00,weatherlink.com 1.10,2013-02-03 05:55:00,